GFSSE_700_rhum_024.txt.gz
RH
64 69 65 60 55 48 35 28 23 23 22 20 19 15 8 4 7 14 16 17 18 18 18 19 18 19 20 21 21 21 21 19 26 34 20 20 34 33 21 22 28 20 13
67 63 69 67 60 52 37 28 22 24 25 23 20 14 4 8 15 17 17 21 20 18 18 17 20 22 24 26 26 25 23 22 24 24 20 19 19 20 18 18 19 22 22
70 71 76 77 65 54 38 29 24 35 28 34 20 10 12 17 20 21 21 21 21 20 19 23 26 28 29 29 29 28 27 24 21 19 20 21 19 18 20 20 18 18 18
77 82 78 81 72 61 43 34 29 27 37 30 17 11 19 23 26 25 25 26 22 21 25 30 33 34 34 32 35 36 33 30 28 25 20 18 20 21 21 21 19 19 18
79 90 82 80 79 72 52 39 35 34 51 22 12 17 22 26 28 27 28 26 26 29 34 37 37 41 40 40 41 40 38 38 33 29 27 23 20 20 21 22 22 21 20
88 99 86 85 95 90 60 52 47 62 36 21 13 23 28 29 31 31 28 28 30 37 42 37 42 47 51 51 49 48 44 40 37 38 32 27 24 21 19 18 18 18 22
89 94 95 99 100 97 75 69 65 53 36 11 20 27 30 31 33 31 29 32 37 39 40 42 50 59 56 56 51 49 54 51 47 49 48 38 28 24 22 19 18 18 18
99 99 95 99 99 99 98 81 72 26 14 22 28 28 31 34 35 33 32 34 35 37 39 46 52 57 55 53 54 56 59 62 60 57 53 40 25 24 23 22 19 17 16
97 99 94 99 100 100 99 68 40 19 32 31 29 36 35 38 37 34 33 35 37 40 44 47 58 59 59 55 57 50 62 69 68 61 46 24 20 20 19 19 18 17 16
100 100 94 94 100 100 96 80 55 52 39 43 35 38 35 38 38 38 36 39 41 43 47 61 62 68 57 51 42 47 68 74 64 40 25 22 21 21 21 19 18 17 16
90 97 100 100 100 97 93 70 64 62 49 28 34 35 35 38 40 40 42 42 43 47 53 66 70 68 46 26 25 26 29 28 28 30 29 28 27 25 23 21 20 18 17
98 95 100 100 100 100 100 92 92 46 21 30 32 34 36 38 41 43 42 43 47 57 70 71 69 51 28 26 30 33 35 35 35 34 33 32 30 28 26 22 20 18 17
94 98 100 90 98 100 94 70 36 22 14 29 34 34 35 38 40 41 44 48 63 70 70 72 51 31 30 34 36 37 38 37 38 36 33 30 27 22 20 19 17 16 15
61 74 76 77 84 63 56 46 26 16 22 28 33 34 35 37 41 44 50 68 65 66 65 44 30 34 41 42 40 39 41 41 40 34 29 24 22 20 17 14 13 12 11
60 56 58 41 28 18 14 13 16 14 16 28 33 34 38 46 54 66 66 62 57 58 39 35 43 48 46 42 43 44 43 42 36 30 26 24 20 15 12 11 9 8 6
49 27 21 18 19 22 23 23 26 25 33 36 41 47 60 53 46 50 44 47 45 38 41 49 48 45 43 36 35 35 35 34 30 28 26 24 18 14 11 9 8 7 6
31 28 27 29 30 30 32 36 37 39 44 54 61 60 42 33 33 36 39 35 37 50 52 48 46 47 42 33 29 28 30 29 28 28 27 24 19 14 10 9 7 6 6
32 33 36 39 42 44 50 59 50 52 59 56 50 40 32 31 33 35 36 39 47 48 43 41 42 51 55 56 46 30 28 29 28 28 28 24 20 16 11 9 8 7 6
33 36 39 44 47 54 60 65 70 61 46 42 41 36 32 36 37 36 37 40 45 47 51 51 48 47 51 53 51 35 32 31 31 30 29 26 22 16 12 10 8 7 6
31 34 38 44 51 60 66 68 63 66 51 44 41 36 35 38 40 39 41 43 48 54 54 50 52 45 45 48 45 39 35 34 32 32 31 28 22 17 13 10 10 9 8
30 36 41 46 47 50 53 61 66 70 69 51 41 38 37 40 42 45 47 50 53 53 55 58 60 64 73 70 64 52 41 37 36 35 34 29 23 18 14 11 10 10 9
34 37 40 44 45 52 59 66 71 76 74 66 48 40 40 42 43 45 48 51 57 60 63 68 72 73 80 72 77 70 50 50 52 42 37 33 27 23 16 10 8 7 6
34 35 40 44 50 56 62 65 69 70 72 75 68 42 43 45 46 49 53 58 63 66 69 73 76 81 90 88 77 76 58 58 62 52 38 34 28 22 15 9 6 5 6
52 45 45 50 57 65 74 76 75 79 87 90 90 46 46 49 52 56 60 63 65 68 72 73 78 97 81 92 85 82 66 74 77 65 37 26 18 9 6 7 7 9 11
59 66 64 62 70 78 82 80 74 82 86 97 95 63 49 52 55 59 62 62 64 68 74 88 96 98 93 94 91 88 92 88 79 70 52 19 8 8 8 10 14 23 40
63 64 70 74 72 83 89 84 84 82 88 95 85 84 69 63 65 66 66 67 67 73 91 97 98 96 95 84 91 91 88 76 76 41 22 10 8 13 16 17 27 43 54

GFSSE_700_rhum_030.txt.gz
RH
43 50 64 65 58 48 47 53 50 38 29 22 19 15 8 6 15 18 18 19 21 19 20 23 24 25 25 25 26 24 22 20 19 18 19 19 18 17 18 17 18 23 20
58 55 64 69 60 51 49 49 48 38 28 21 20 14 5 11 17 20 21 22 22 25 27 29 29 30 31 32 33 31 29 26 25 23 20 19 19 18 19 18 18 17 18
55 56 73 78 62 53 49 48 50 45 33 22 21 15 5 15 20 23 24 24 28 31 32 32 33 35 38 39 38 37 36 32 29 27 25 23 21 19 18 18 20 19 18
63 68 62 83 70 57 55 55 60 45 27 26 28 19 8 18 23 26 25 28 34 35 36 40 44 47 45 44 42 41 41 40 40 41 39 33 27 23 21 18 17 17 18
63 79 73 88 80 67 60 57 54 38 27 27 27 15 14 21 27 27 28 34 37 37 43 46 48 49 44 41 36 41 47 52 50 51 48 43 34 26 24 22 20 18 17
70 90 92 92 91 85 83 63 49 34 31 31 22 14 18 23 29 28 31 38 39 42 43 47 49 50 48 43 42 43 43 54 56 57 52 44 31 23 21 21 21 20 18
71 98 100 96 98 100 88 71 48 37 31 22 15 20 22 28 31 29 34 38 40 42 44 46 51 54 56 44 39 37 49 58 64 58 50 39 24 21 19 18 17 17 18
97 98 99 100 99 100 93 83 50 38 26 17 24 25 28 30 33 32 36 39 41 43 45 48 57 63 61 38 25 32 44 49 48 38 31 26 23 21 20 20 18 17 16
95 98 98 99 98 100 97 85 53 29 22 28 27 28 30 37 33 35 40 41 43 44 46 57 64 63 59 26 24 25 26 26 27 27 26 25 26 25 26 25 25 23 20
77 93 98 99 98 99 98 74 47 24 36 40 33 34 39 38 37 39 44 43 43 45 49 64 64 57 38 25 28 28 26 27 30 29 26 24 20 21 22 22 23 24 23
89 97 98 99 100 100 100 96 85 44 36 41 42 49 49 43 40 43 45 44 43 46 55 69 68 60 28 31 31 30 30 32 31 29 26 23 20 20 21 20 20 19 18
99 99 100 100 100 99 98 99 55 50 46 46 55 63 53 49 48 48 47 42 45 51 73 68 61 29 34 34 30 25 25 25 25 25 23 23 22 22 22 21 20 17 15
93 100 100 100 97 99 99 68 70 75 59 75 64 58 54 48 46 46 43 45 49 73 69 64 34 35 36 35 33 35 40 40 33 27 26 26 26 26 25 24 21 16 12
100 99 99 99 100 100 97 96 96 76 89 64 48 44 46 41 43 42 43 49 72 71 63 40 37 35 36 38 42 44 44 47 42 30 28 28 28 29 28 25 24 20 15
97 99 100 98 99 100 100 100 98 93 87 46 45 41 41 41 40 44 53 72 72 58 43 37 37 39 41 37 38 38 40 43 40 38 35 31 29 29 29 29 27 24 20
83 96 98 100 100 95 87 98 86 60 44 43 43 43 41 40 47 61 73 66 51 37 37 39 45 43 36 34 32 36 38 39 44 45 38 30 29 30 32 32 31 29 26
58 65 67 77 79 77 84 82 49 30 41 42 43 40 45 63 69 51 48 41 33 36 38 44 49 44 48 44 44 47 47 48 50 56 55 47 38 47 48 46 39 35 34
61 64 68 78 79 77 56 44 28 27 36 40 41 53 71 53 43 40 36 34 35 36 35 44 45 48 52 49 60 55 58 56 53 53 47 52 48 50 46 49 50 47 44
36 36 32 29 29 42 27 18 20 27 36 43 60 62 56 44 38 35 35 35 34 36 38 43 47 55 56 61 65 64 63 69 64 51 54 52 51 56 55 44 51 53 49
30 29 27 24 30 31 30 24 33 41 55 62 59 58 49 38 38 36 36 36 36 39 44 51 54 60 65 68 68 67 75 73 66 69 61 53 56 52 60 55 50 50 50
37 39 41 42 44 56 54 50 48 49 53 57 55 54 43 38 40 40 40 40 41 45 50 55 59 63 66 68 70 71 67 64 66 66 51 50 51 53 64 53 47 48 51
38 42 47 51 54 56 57 60 60 61 58 54 60 56 49 42 39 42 41 43 45 48 52 56 60 64 68 71 74 85 94 89 60 64 52 49 49 50 48 42 37 35 38
32 36 41 46 50 55 59 63 62 61 63 67 69 73 87 75 45 41 44 45 48 51 54 60 62 69 93 96 100 94 84 85 71 65 58 56 49 43 39 35 30 32 35
32 34 39 42 46 50 56 60 64 68 71 77 80 86 94 94 83 48 44 45 47 49 52 58 82 99 99 80 81 74 83 73 71 76 62 52 43 36 35 36 40 44 47
36 36 38 41 44 49 52 56 62 69 77 85 85 87 92 93 93 98 84 58 51 54 65 90 99 99 95 68 68 76 70 68 67 65 57 51 46 40 38 40 46 48 38
43 50 50 46 46 50 56 63 71 78 82 90 84 86 92 95 99 100 99 96 71 88 95 94 100 99 98 85 74 87 69 70 68 57 48 46 46 43 46 47 37 27 12

GFSSE_700_rhum_033.txt.gz
RH
43 46 55 66 65 51 44 49 48 43 31 22 18 11 4 10 15 17 18 18 18 20 22 22 25 24 26 26 24 24 24 22 19 17 16 16 17 16 16 16 17 19 22
45 51 54 70 65 50 45 51 55 49 36 24 19 11 5 14 18 19 20 20 23 27 29 28 29 30 32 33 34 32 29 26 24 23 21 19 18 17 17 17 16 17 17
43 52 55 71 66 52 49 56 58 53 42 26 20 8 10 17 20 22 23 28 31 32 33 35 38 41 42 40 39 38 36 35 34 32 29 25 22 20 18 17 16 16 17
46 56 56 70 69 55 53 58 58 57 42 23 16 9 20 21 24 24 29 34 34 38 42 47 45 43 42 41 40 47 46 44 45 45 54 38 32 26 23 20 19 17 16
56 56 57 66 74 59 53 53 57 58 38 25 14 17 23 25 26 27 34 36 42 45 46 49 46 47 47 41 42 39 45 49 47 52 47 42 34 26 23 22 21 20 18
56 56 64 61 80 66 57 60 64 58 30 25 15 22 27 28 28 32 40 41 42 44 47 51 51 50 48 30 28 33 48 53 76 76 47 38 28 22 20 19 17 17 17
92 78 95 91 87 74 64 62 61 47 30 22 19 24 29 33 30 38 40 41 41 44 47 50 52 56 52 22 24 32 44 54 49 42 31 24 22 19 19 18 18 17 17
99 99 100 100 99 95 84 68 56 39 28 19 25 26 33 34 32 37 37 40 41 44 48 56 57 55 39 21 21 22 22 23 25 32 20 23 21 19 21 22 22 23 22
97 94 97 99 100 100 96 73 53 57 31 25 28 31 33 36 37 40 38 40 42 45 50 62 60 48 25 24 26 26 24 25 25 26 27 20 18 17 16 18 19 20 21
98 95 96 99 98 100 97 78 78 28 23 30 35 38 42 39 39 39 40 41 42 46 53 66 58 49 24 28 26 25 24 21 26 24 18 17 17 16 18 18 19 18 18
90 97 98 98 99 99 97 89 30 25 36 46 49 50 50 47 43 44 44 43 43 48 61 66 58 30 29 29 26 23 21 25 26 25 24 24 22 20 20 19 20 19 18
90 96 99 98 100 99 96 88 64 49 73 60 57 59 59 51 49 48 48 44 44 51 72 62 50 29 30 30 31 37 40 40 38 33 27 25 24 22 20 18 18 21 19
98 98 96 96 100 100 100 99 100 98 86 63 61 60 67 52 51 53 50 43 50 62 71 60 32 33 35 38 42 38 28 33 40 33 36 34 31 28 24 22 22 22 22
88 98 97 100 98 100 100 99 99 98 91 74 89 89 64 58 58 56 44 47 57 66 63 48 32 35 40 35 28 26 29 33 39 38 36 35 33 29 26 25 27 28 26
99 100 100 99 100 100 100 99 99 98 89 90 93 75 51 63 59 46 47 53 66 70 56 32 35 40 35 35 30 30 31 38 40 43 36 46 41 39 36 42 41 38 36
100 98 100 100 100 100 100 99 100 89 87 91 57 46 48 52 46 50 54 64 72 54 34 35 40 43 42 42 38 53 54 54 50 49 52 37 32 36 41 41 40 40 41
100 100 99 100 100 100 100 96 99 86 79 64 54 44 46 43 50 58 75 70 56 36 34 38 48 47 48 52 57 61 56 54 50 55 54 50 44 42 44 45 46 46 41
68 81 80 86 97 85 78 86 96 96 93 49 52 48 44 51 71 72 58 42 36 33 36 42 45 47 54 59 64 60 58 59 57 57 50 60 58 52 46 44 46 52 47
58 58 70 76 67 60 67 69 61 40 47 46 43 58 61 77 58 43 34 33 33 34 39 44 46 50 53 61 61 61 62 64 58 52 51 53 48 42 42 38 40 48 51
35 40 56 77 76 76 73 62 31 28 36 51 59 67 75 60 40 36 34 33 36 38 39 44 49 55 59 61 64 65 66 65 65 66 48 52 46 42 43 43 39 34 31
26 25 22 22 46 56 54 22 22 30 38 60 71 72 50 44 40 39 38 37 39 40 42 46 51 55 59 63 67 74 71 57 55 52 47 47 47 50 51 46 38 34 27
39 40 36 34 47 58 50 37 38 42 49 64 69 65 55 48 43 40 42 41 40 42 45 47 51 55 61 64 88 92 74 65 71 54 52 53 51 50 48 40 29 25 22
40 42 45 48 48 51 60 55 51 51 51 52 52 59 57 62 69 54 43 41 42 44 45 48 53 57 58 82 87 90 60 82 80 85 67 56 55 48 39 34 29 24 20
33 38 43 47 49 51 53 54 54 56 59 63 68 74 78 83 87 90 94 64 46 47 46 47 49 50 60 97 95 94 79 79 82 70 71 64 55 47 39 34 30 26 26
30 33 36 40 43 47 50 55 57 61 63 66 68 74 80 78 87 91 99 99 99 98 73 54 52 57 75 99 99 99 86 82 70 70 72 70 61 51 47 38 32 31 34
31 33 33 36 40 42 47 50 53 57 61 65 74 81 85 88 90 95 97 99 100 98 95 99 75 77 94 99 100 96 95 94 95 91 84 75 62 56 54 43 38 38 38

GFSSE_700_rhum_036.txt.gz
RH
42 37 46 53 64 62 49 41 37 31 23 17 11 5 6 12 13 15 15 16 16 20 20 20 22 23 23 24 24 23 22 20 18 16 14 14 15 14 14 15 16 16 18
58 45 51 58 70 60 45 43 40 34 24 18 13 6 10 15 17 17 16 19 22 24 25 25 25 28 28 31 31 31 28 25 22 22 21 19 17 15 14 14 14 15 15
89 46 50 59 64 57 46 52 49 36 24 19 16 6 14 17 19 18 20 24 28 28 28 32 38 40 38 38 38 38 37 35 33 28 30 29 25 22 20 18 16 14 14
66 61 52 56 67 59 50 62 58 44 29 21 12 11 18 21 21 22 26 29 32 36 39 42 41 39 38 37 39 39 45 44 40 40 41 38 33 28 25 22 21 19 17
62 68 69 63 71 60 54 70 63 51 37 23 10 16 20 24 24 28 31 34 39 44 44 43 43 41 32 28 29 37 46 45 41 46 43 38 32 27 24 22 20 19 18
92 76 84 67 60 71 61 72 70 62 42 23 13 19 23 26 28 35 36 38 42 44 46 45 47 45 24 23 31 45 52 46 28 40 33 28 24 22 19 16 15 14 14
96 99 74 79 74 73 66 69 77 70 31 17 20 25 28 29 36 39 40 41 42 43 48 52 52 44 18 19 22 24 26 24 14 19 19 16 15 13 13 13 15 15 16
56 96 95 77 69 73 77 74 79 56 25 16 23 30 32 32 43 43 41 43 43 46 54 54 45 29 19 20 21 21 22 22 16 14 16 14 13 12 12 12 13 14 15
73 99 94 89 92 84 78 82 73 39 20 21 29 37 36 41 43 43 42 42 44 46 56 54 50 25 21 21 21 21 21 22 19 15 14 15 14 13 12 12 12 12 14
79 94 92 96 99 94 86 81 58 23 25 39 37 44 39 44 45 44 44 44 44 48 61 52 43 23 25 24 22 20 19 18 15 23 24 23 21 20 19 18 15 14 14
94 96 88 84 92 97 99 76 41 49 65 54 48 49 49 47 46 47 48 45 46 51 64 54 37 25 27 26 26 32 32 28 20 27 24 21 23 24 21 18 16 15 16
95 92 92 99 100 94 95 92 80 88 59 46 56 58 60 56 53 49 48 46 46 53 66 53 32 28 31 32 31 28 21 23 19 26 24 23 23 26 27 27 23 18 18
83 85 94 99 100 100 98 96 96 78 43 59 75 82 75 58 57 49 47 46 47 60 69 53 28 32 32 36 29 22 22 23 21 26 26 30 36 31 30 30 32 32 30
96 93 99 98 99 98 100 100 100 78 89 84 89 87 94 91 72 56 50 45 53 71 69 50 29 35 37 28 27 30 31 31 30 35 39 47 36 32 31 28 30 32 32
88 100 100 100 100 100 100 100 88 97 99 98 98 93 95 81 65 54 46 48 60 77 58 35 35 40 34 35 34 37 41 42 50 42 44 44 46 46 40 41 38 36 32
93 95 100 99 100 100 100 99 100 99 99 92 96 95 92 78 68 49 44 52 72 77 57 33 38 41 40 40 38 39 44 54 60 58 52 51 46 54 52 48 45 40 36
98 96 98 100 100 100 100 99 99 99 100 98 91 84 78 64 50 44 54 66 83 62 43 34 37 45 41 41 43 50 57 62 63 62 56 55 46 47 44 38 35 35 34
97 96 94 88 98 98 99 100 100 96 89 89 82 70 56 45 43 54 65 79 62 44 36 37 40 45 45 48 53 58 62 62 61 63 67 64 55 41 42 35 35 37 36
50 57 61 64 76 95 98 85 82 76 78 77 62 42 43 43 52 68 80 64 42 36 33 37 40 43 47 55 60 62 62 63 68 60 47 63 50 38 34 33 36 41 40
47 39 40 44 43 36 52 85 74 68 57 44 43 53 54 58 69 74 62 38 38 33 35 37 39 46 51 56 60 60 63 70 67 61 42 42 40 48 43 38 37 37 36
28 38 57 61 61 62 58 36 38 37 37 38 42 60 68 81 52 55 48 36 39 37 38 39 42 46 51 54 59 65 66 72 78 65 52 48 42 41 44 45 43 38 34
34 27 30 48 58 62 57 32 26 29 34 37 58 71 80 94 45 47 45 40 42 41 41 42 43 46 49 52 59 63 76 90 88 81 80 62 52 52 50 49 46 40 37
35 38 42 46 49 54 53 33 30 32 37 46 56 59 59 66 56 52 51 48 46 49 44 44 44 46 48 52 56 59 69 99 97 95 80 72 62 60 61 62 55 51 42
34 37 40 40 42 44 48 43 46 42 45 44 45 48 57 62 64 72 83 94 95 91 85 57 54 55 54 55 57 56 63 92 98 91 73 70 74 76 69 64 61 51 36
30 34 37 39 41 42 45 47 59 50 51 56 60 65 69 74 80 82 95 94 93 97 99 98 98 100 97 86 76 70 72 95 97 82 84 88 80 86 78 72 62 47 37
29 31 34 36 38 40 41 49 52 58 60 62 63 65 68 74 78 74 85 86 91 100 98 100 99 100 99 99 99 96 97 98 93 93 92 92 95 90 86 79 69 55 48